Tracking 35275 objects as of 8-Sep-2026
HD Live streaming from Space Station
objects crossing your sky now

PAGEOS 1 DEB


PAGEOS 1 DEB is no longer on orbit


NORAD ID: 8064
Int'l Code: 1966-056E
Launch date: June 24, 1966
Source: United States (US)
Launch site: AIR FORCE WESTERN TEST RANGE (AFWTR)
Decay date: 1990-03-08

Note: This is SATELLITE DEBRIS
Your satellite tracking list
Your tracking list is empty




NASA's NSSDC Master Catalog

Two Line Element Set (TLE):
1 08064U 66056  E 90067.34813038  .00000019 +00000-0 +00000-4 0  9997
2 08064 084.2833 198.6079 1837178 049.5934 325.1306 08.10048573007460
Source of the keplerian elements: AFSPC